STARLINK-1302, 45375

Orbit data source: Space-Track

STARLINK-1302, 45375 is a payload satellite owned by SpaceX/Seattle (US) in LEO that was launched on Wed, 18 Mar 2020 UTC via an FALCON 9 launch vehicle from the Air Force Eastern Test Range (AFETR). Payload-class satellites include a variety of spacecraft equipped with specific instruments for various scientific and technological missions. These include communications satellites like Starlink; space stations such as the ISS; scientific satellites like the Hubble; Earth observation satellites from companies like Planet Labs, Umbra, and HawkEye 360; GPS; miniature CubeSats for education and research; and military/defense satellites.

Loading next visibility...
Identifier
45375, 2020-019R
Orbit
LEO
Country
Flag of USUS
Related business
Manufacturer
SpaceX/Seattle
Mission
Operational Commercial Communications
Bus & Motor
STARLINK, Unknown motor
Mass
260 kg wet, ~248 kg dry
Launch date (UTC)
2020-03-18 (6 years ago)
Launch vehicle
FALCON 9
Launch site
Air Force Eastern Test Range (AFETR)
Object type
Payload
Rocket body
Debris
Shape & HBR
Box + 1 Pan, 10.1 m
Radar Cross Section
13.562 m², Large (>1 m²)

Expand to show TLE details & history
Last TLE update: 1 day ago

TLE from 1 day ago
0 STARLINK-1302
1 45375U 20019R   25312.42834757  .00003889  00000-0  27993-3 0  9990
2 45375  53.0539 350.9819 0001221  89.3134 270.7995 15.06387192311455
Epoch: 2025-11-08T10:16Z
TLE epoch observation values (Epoch: 2025-11-08T10:16:49.230Z)
Latitude
0.00001°
Longitude
148.91868°
Altitude
548.118 km
Speed
7.589 km/s
True Right ascension
23h 23m 55s
True Declination
0° 00' 00"
Sunlit
Object was in full shadow at epoch
Visualization orbit readout
Latitude
Unknown
Longitude
Unknown
Altitude
Unknown
Speed
Unknown
Apparent Right ascension
Unknown
Apparent Declination
Unknown
Sunlit
N/A
Visualization observer readout
Local Sidereal Time
18:26:44
Azimuth
Unknown
Elevation
Unknown
Doppler factor
Unknown
Orbital elements
Apogee altitude
548.367 km
Perigee altitude
546.676 km
Semi-major axis
6,925.659 km
Eccentricity
0.00012
Inclination
53.0539°
RAAN
350.9819°
Arg. of periapsis
89.3134°
True anomaly
270.78551°
Mean anomaly
270.7995°
Eccentric anomaly
270.7925°
Mean motion
3.76575 °/min
Orbital period
95.6 mins
BSTAR
0.00027993
Loading maneuver chart data...
Computing Atmospheric mass density...

Documentation

Showing up to 5 results
|